When you browse on this site, cookies collect data to enhance your experience and personalize the content and advertising you see.
Visit our Privacy Policy to learn more. By continuing to use the site, you agree to this use of cookies and data.
  • In United Kingdom
  • List of Countries
  • For 7 days
  • Water Temperature
  • Weather Map
  • Weather Widgets
  • user-avatar
    Login

    Hourly Weather Clevedon

    Today, 21 September, Saturday

    Time Temperature Precipitation Wind Pressure Humidity
    00:00 +13°C° 0 mm 5 mps 760 mmHg 70%
    01:00 +13°C° 0 mm 5 mps 760 mmHg 72%
    02:00 +12°C° 0 mm 5 mps 759 mmHg 74%
    03:00 +12°C° 0 mm 5 mps 759 mmHg 76%
    04:00 +12°C° 0 mm 5 mps 758 mmHg 77%
    05:00 +12°C° 0 mm 5 mps 758 mmHg 78%
    06:00 +12°C° 0 mm 5 mps 757 mmHg 79%
    07:00 +13°C° 0 mm 5 mps 757 mmHg 76%
    08:00 +15°C° 0 mm 5 mps 757 mmHg 73%
    09:00 +16°C° 0 mm 5 mps 757 mmHg 69%
    10:00 +19°C° 0 mm 5 mps 757 mmHg 67%
    11:00 +21°C° 0 mm 5 mps 756 mmHg 65%
    12:00 +22°C° 0 mm 5 mps 756 mmHg 63%
    13:00 +23°C° 0 mm 5 mps 755 mmHg 64%
    14:00 +23°C° 0 mm 6 mps 755 mmHg 65%
    15:00 +23°C° 0 mm 6 mps 754 mmHg 66%
    16:00 +22°C° 0.1 mm 6 mps 754 mmHg 71%
    17:00 +21°C° 0.1 mm 5 mps 754 mmHg 75%
    18:00 +20°C° 0.1 mm 5 mps 753 mmHg 80%
    19:00 +19°C° 0.7 mm 4 mps 753 mmHg 82%
    20:00 +19°C° 0.7 mm 4 mps 753 mmHg 85%
    21:00 +18°C° 0.7 mm 4 mps 753 mmHg 87%
    22:00 +18°C° 0.4 mm 4 mps 752 mmHg 89%
    23:00 +18°C° 0.4 mm 4 mps 752 mmHg 91%

    Tomorrow, 22 September, Sunday

    Time Temperature Precipitation Wind Pressure Humidity
    00:00 +18°C° 0.4 mm 3 mps 752 mmHg 92%
    01:00 +18°C° 0.1 mm 3 mps 751 mmHg 93%
    02:00 +18°C° 0.1 mm 3 mps 751 mmHg 94%
    03:00 +18°C° 0.1 mm 3 mps 750 mmHg 95%
    04:00 +18°C° 0.1 mm 3 mps 750 mmHg 95%
    05:00 +18°C° 0.1 mm 3 mps 750 mmHg 96%
    06:00 +17°C° 0.1 mm 3 mps 750 mmHg 96%
    07:00 +17°C° 1.7 mm 3 mps 750 mmHg 95%
    08:00 +17°C° 1.7 mm 3 mps 750 mmHg 95%
    09:00 +16°C° 1.7 mm 2 mps 750 mmHg 94%
    10:00 +17°C° 0.9 mm 3 mps 750 mmHg 92%
    11:00 +17°C° 0.9 mm 4 mps 750 mmHg 90%
    12:00 +16°C° 0.9 mm 5 mps 750 mmHg 87%
    13:00 +17°C° 0.2 mm 6 mps 750 mmHg 84%
    14:00 +17°C° 0.2 mm 6 mps 750 mmHg 81%
    15:00 +19°C° 0.2 mm 6 mps 750 mmHg 77%
    16:00 +17°C° 0.4 mm 6 mps 750 mmHg 81%
    17:00 +16°C° 0.4 mm 5 mps 750 mmHg 85%
    18:00 +15°C° 0.4 mm 4 mps 750 mmHg 89%
    19:00 +14°C° 0.2 mm 5 mps 751 mmHg 90%
    20:00 +14°C° 0.2 mm 6 mps 752 mmHg 91%
    21:00 +14°C° 0.2 mm 7 mps 752 mmHg 92%
    22:00 +12°C° 0.1 mm 7 mps 753 mmHg 90%
    23:00 +12°C° 0.1 mm 7 mps 753 mmHg 88%

    Day after tomorrow, 23 September, Monday

    Time Temperature Precipitation Wind Pressure Humidity
    00:00 +12°C° 0.1 mm 8 mps 754 mmHg 86%
    01:00 +12°C° 0 mm 7 mps 754 mmHg 87%
    02:00 +11°C° 0 mm 6 mps 754 mmHg 89%
    03:00 +10°C° 0 mm 5 mps 755 mmHg 90%
    04:00 +11°C° 0 mm 4 mps 755 mmHg 91%
    05:00 +11°C° 0 mm 4 mps 755 mmHg 92%
    06:00 +11°C° 0 mm 3 mps 755 mmHg 93%
    07:00 +12°C° 0 mm 4 mps 755 mmHg 89%
    08:00 +14°C° 0 mm 4 mps 755 mmHg 85%
    09:00 +15°C° 0 mm 5 mps 755 mmHg 81%
    10:00 +15°C° 0.2 mm 6 mps 755 mmHg 80%
    11:00 +16°C° 0.2 mm 7 mps 754 mmHg 79%
    12:00 +16°C° 0.2 mm 8 mps 754 mmHg 78%
    13:00 +16°C° 1.8 mm 8 mps 753 mmHg 83%
    14:00 +15°C° 1.8 mm 8 mps 753 mmHg 88%
    15:00 +13°C° 1.8 mm 8 mps 752 mmHg 93%
    16:00 +15°C° 0.6 mm 8 mps 751 mmHg 94%
    17:00 +15°C° 0.6 mm 7 mps 751 mmHg 94%
    18:00 +16°C° 0.6 mm 7 mps 750 mmHg 95%
    19:00 +16°C° 0.5 mm 6 mps 751 mmHg 95%
    20:00 +16°C° 0.5 mm 6 mps 751 mmHg 94%
    21:00 +16°C° 0.5 mm 6 mps 751 mmHg 94%
    22:00 +16°C° 0.2 mm 6 mps 750 mmHg 94%
    23:00 +16°C° 0.2 mm 5 mps 750 mmHg 95%

    24 September, Tuesday

    Time Temperature Precipitation Wind Pressure Humidity
    00:00 +16°C° 0.2 mm 5 mps 750 mmHg 95%
    01:00 +16°C° 0.2 mm 5 mps 750 mmHg 95%
    02:00 +15°C° 0.2 mm 5 mps 750 mmHg 95%
    03:00 +15°C° 0.2 mm 5 mps 749 mmHg 94%
    04:00 +15°C° 1.6 mm 4 mps 749 mmHg 95%
    05:00 +15°C° 1.6 mm 4 mps 748 mmHg 96%
    06:00 +15°C° 1.6 mm 4 mps 747 mmHg 97%
    07:00 +15°C° 0.9 mm 5 mps 748 mmHg 92%
    08:00 +16°C° 0.9 mm 6 mps 748 mmHg 88%
    09:00 +16°C° 0.9 mm 7 mps 748 mmHg 83%
    10:00 +17°C° 0.2 mm 7 mps 748 mmHg 80%
    11:00 +17°C° 0.2 mm 7 mps 748 mmHg 78%
    12:00 +17°C° 0.2 mm 7 mps 748 mmHg 75%
    13:00 +16°C° 0.7 mm 8 mps 748 mmHg 78%
    14:00 +15°C° 0.7 mm 8 mps 747 mmHg 80%
    15:00 +15°C° 0.7 mm 9 mps 747 mmHg 83%
    16:00 +15°C° 0.6 mm 9 mps 746 mmHg 84%
    17:00 +15°C° 0.6 mm 9 mps 746 mmHg 86%
    18:00 +15°C° 0.6 mm 9 mps 745 mmHg 87%
    19:00 +15°C° 0.1 mm 9 mps 745 mmHg 87%
    20:00 +13°C° 0.1 mm 10 mps 745 mmHg 87%
    21:00 +13°C° 0.1 mm 11 mps 745 mmHg 87%
    22:00 +13°C° 0.5 mm 10 mps 745 mmHg 87%
    23:00 +13°C° 0.5 mm 10 mps 745 mmHg 87%

    25 September, Wednesday

    Time Temperature Precipitation Wind Pressure Humidity
    00:00 +13°C° 0.5 mm 10 mps 745 mmHg 87%
    01:00 +13°C° 0.3 mm 9 mps 745 mmHg 88%
    02:00 +13°C° 0.3 mm 8 mps 746 mmHg 88%
    03:00 +12°C° 0.3 mm 7 mps 746 mmHg 89%
    04:00 +12°C° 0.5 mm 7 mps 746 mmHg 89%
    05:00 +12°C° 0.5 mm 8 mps 747 mmHg 90%
    06:00 +12°C° 0.5 mm 8 mps 747 mmHg 90%
    07:00 +13°C° 0.4 mm 8 mps 748 mmHg 88%
    08:00 +13°C° 0.4 mm 9 mps 748 mmHg 86%
    09:00 +14°C° 0.4 mm 10 mps 749 mmHg 84%
    10:00 +15°C° 0.3 mm 9 mps 749 mmHg 82%
    11:00 +16°C° 0.3 mm 9 mps 749 mmHg 81%
    12:00 +16°C° 0.3 mm 8 mps 750 mmHg 79%
    13:00 +16°C° 0.2 mm 8 mps 749 mmHg 78%
    14:00 +16°C° 0.2 mm 7 mps 749 mmHg 77%
    15:00 +16°C° 0.2 mm 6 mps 749 mmHg 76%
    16:00 +15°C° 0.5 mm 5 mps 749 mmHg 82%
    17:00 +15°C° 0.5 mm 4 mps 748 mmHg 88%
    18:00 +14°C° 0.5 mm 3 mps 748 mmHg 94%
    19:00 +14°C° 0.3 mm 3 mps 748 mmHg 95%
    20:00 +15°C° 0.3 mm 4 mps 748 mmHg 96%
    21:00 +15°C° 0.3 mm 4 mps 748 mmHg 96%
    22:00 +15°C° 0.2 mm 5 mps 747 mmHg 95%
    23:00 +15°C° 0.2 mm 5 mps 746 mmHg 95%

    26 September, Thursday

    Time Temperature Precipitation Wind Pressure Humidity
    00:00 +16°C° 0.2 mm 6 mps 746 mmHg 94%
    01:00 +16°C° 1.2 mm 7 mps 746 mmHg 93%
    02:00 +16°C° 1.2 mm 8 mps 745 mmHg 93%
    03:00 +17°C° 1.2 mm 9 mps 745 mmHg 92%
    04:00 +16°C° 0.3 mm 8 mps 745 mmHg 92%
    05:00 +16°C° 0.3 mm 7 mps 745 mmHg 91%
    06:00 +15°C° 0.3 mm 7 mps 745 mmHg 91%
    07:00 +16°C° 0.1 mm 8 mps 746 mmHg 88%
    08:00 +16°C° 0.1 mm 8 mps 746 mmHg 86%
    09:00 +16°C° 0.1 mm 9 mps 746 mmHg 83%
    10:00 +16°C° 0.2 mm 9 mps 746 mmHg 78%
    11:00 +17°C° 0.2 mm 10 mps 747 mmHg 74%
    12:00 +17°C° 0.2 mm 10 mps 747 mmHg 69%
    13:00 +16°C° 0.3 mm 10 mps 747 mmHg 71%
    14:00 +16°C° 0.3 mm 10 mps 747 mmHg 73%
    15:00 +15°C° 0.3 mm 9 mps 747 mmHg 75%
    16:00 +15°C° 0.3 mm 9 mps 747 mmHg 77%
    17:00 +13°C° 0.3 mm 9 mps 747 mmHg 80%
    18:00 +12°C° 0.3 mm 8 mps 747 mmHg 83%
    19:00 +12°C° 0.3 mm 8 mps 747 mmHg 84%
    20:00 +12°C° 0.3 mm 8 mps 747 mmHg 85%
    21:00 +11°C° 0.3 mm 8 mps 747 mmHg 86%
    22:00 +11°C° 0.2 mm 8 mps 747 mmHg 85%
    23:00 +11°C° 0.2 mm 8 mps 747 mmHg 85%
    Show more